#timestamp,LO_Frequency,Hit,StdDev 
1645279215.8,286047003.7,N
1645279235.6,286047001.3,N
1645279255.5,286047002.0,N
1645279275.3,286047001.5,N
1645279295.2,286047002.3,N
1645279315.9,286047002.6,N
1645279335.7,286047002.8,N
1645279355.6,286047000.1,N
1645279375.4,286046999.7,N
1645279395.2,286047000.9,N
1645279415.1,286047001.2,N
1645279416.0,286047001.2,N
1645279435.8,286047000.8,N
1645279455.7,286047001.0,N
1645279475.5,286046998.2,N
1645279495.3,286047002.7,N
1645279515.2,286047002.8,N
1645279535.9,286047000.3,N
1645279555.8,286046999.0,N
1645279575.6,286046996.6,N
1645279595.4,286046998.3,N
1645279615.3,286047000.3,N
1645279635.1,286047002.5,N
1645279655.8,286046999.7,N
1645279675.7,286047001.6,N
1645279695.5,286047005.7,Y
1645279715.4,286047003.0,P
1645279735.2,286047002.9,P
1645279755.0,286047004.2,P
1645279755.9,286047004.2,Y
1645279775.8,286046999.2,P
1645279795.6,286046997.9,N
1645279815.5,286046995.6,N
1645279835.3,286046993.7,N
1645279855.1,286046993.8,N
1645279875.9,286046996.3,N
1645279895.7,286046999.0,N
1645279915.6,286046998.1,N
1645279935.4,286046998.5,N
1645279955.2,286047000.9,N
1645279975.1,286046999.7,N
1645279976.0,286046999.7,N
1645279995.8,286047001.2,N
1645280015.6,286046998.2,N
1645280035.5,286047002.4,N
1645280055.3,286047001.1,N
1645280075.2,286047000.9,N
1645280095.9,286047001.2,N
1645280115.7,286046998.4,N
1645280135.6,286046998.8,N
1645280155.4,286046999.4,N
1645280175.2,286046997.0,N
1645280195.1,286046996.5,N
1645280196.0,286046996.5,N
1645280215.8,286046998.8,N
1645280235.7,286046998.3,N
1645280255.5,286046998.7,N
1645280275.3,286046998.8,N
1645280295.2,286046998.5,N
1645280315.0,286046999.4,N
1645280315.9,286046999.4,N
1645280335.8,286046997.0,N
1645280355.6,286046999.6,N
1645280375.4,286046999.3,N
1645280395.3,286046998.7,N
1645280415.1,286046997.7,N
1645280435.8,286046996.7,N
1645280455.7,286046996.8,N
1645280475.5,286046996.6,N
1645280495.4,286046999.5,N
1645280515.2,286046997.2,N
1645280535.0,286046996.9,N
1645280535.9,286046996.9,N
1645280555.8,286046997.1,N
1645280575.6,286046999.1,N
1645280595.4,286046999.3,N
1645280615.3,286046999.8,N
1645280635.1,286047001.0,N
1645280655.9,286047000.4,N
1645280675.7,286047001.1,N
1645280695.5,286046999.4,N
1645280715.4,286046998.6,N
1645280735.2,286047000.8,N
1645280755.0,286047000.0,N
1645280755.9,286047000.0,N
1645280775.8,286047000.8,N
1645280795.6,286046998.7,N
1645280815.5,286046998.7,N
1645280835.3,286046999.1,N
1645280855.1,286046997.1,N
1645280875.9,286046996.7,N
1645280895.7,286046996.7,N
1645280915.6,286046995.4,Y
1645280935.4,286046997.6,P
1645280955.2,286046999.0,N
1645280975.1,286047001.2,N
1645280976.0,286047001.2,N
1645280995.8,286047004.0,N
1645281015.7,286047001.8,N
1645281035.5,286047001.6,N
1645281055.3,286047001.8,N
1645281075.3,286047002.3,N
1645281095.1,286047000.2,N
1645281115.9,286046999.9,N
1645281135.7,286047000.6,N
1645281155.5,286047002.3,N
1645281175.4,286047002.2,N
1645281195.2,286047000.2,N
1645281215.1,286047001.1,N
1645281216.0,286047001.1,N
1645281235.8,286046998.2,N
1645281255.6,286047000.8,N
1645281275.5,286047001.1,N
1645281295.3,286046998.1,N
1645281315.2,286046998.3,N
1645281335.9,286046998.7,N
1645281355.7,286046997.1,N
1645281375.6,286046997.9,N
1645281395.4,286046996.9,N
1645281415.2,286046997.0,N
1645281435.1,286046998.8,N
1645281436.0,286046998.8,N
1645281455.8,286046997.4,N
1645281475.7,286046996.9,N
1645281495.5,286046998.7,N
1645281515.3,286046999.1,N
1645281535.2,286046998.6,N
1645281555.0,286046996.7,N
1645281555.9,286046996.7,N
1645281575.8,286046995.0,N
1645281595.6,286046996.9,N
1645281615.4,286046995.3,N
1645281635.3,286046997.2,N
1645281655.1,286046995.3,N
1645281675.9,286046997.6,N
1645281695.7,286046994.9,N
1645281715.5,286046994.9,N
1645281735.4,286046995.4,N
1645281755.2,286046995.2,N
1645281775.0,286046997.1,N
1645281775.9,286046997.1,N
1645281795.8,286046997.0,N
1645281815.6,286046997.5,N
1645281835.5,286046995.2,Y
1645281855.3,286046998.1,P
1645281875.1,286047000.1,N
1645281895.9,286047000.5,N
1645281915.7,286046999.9,N
1645281935.5,286047002.1,N
1645281955.4,286047002.1,N
1645281975.2,286047000.2,N
1645281995.1,286046999.7,N
1645281996.0,286046999.7,N
1645282015.8,286046999.8,N
1645282035.6,286046998.2,N
1645282055.5,286047001.1,N
1645282075.3,286046998.5,N
1645282095.2,286046999.1,N
1645282115.9,286046998.4,N
1645282135.7,286046996.9,N
1645282155.6,286046996.7,N
1645282175.4,286046999.4,N
1645282195.3,286046999.4,N
1645282215.1,286046996.9,N
1645282216.0,286046996.9,N
1645282235.8,286046996.5,N
1645282255.7,286046998.1,N
1645282275.5,286047001.1,N
1645282295.3,286047000.5,N
1645282315.2,286046999.8,N
1645282335.0,286046999.7,N
1645282335.9,286046999.7,N
1645282355.8,286046999.8,N
1645282375.6,286046999.9,N
1645282395.4,286047000.6,N
1645282415.3,286046999.8,N
1645282435.1,286047000.6,N
1645282455.9,286047000.7,N
1645282475.7,286047000.6,N
1645282495.5,286047000.4,N
1645282515.4,286047000.6,N
1645282535.2,286046999.8,N
1645282555.0,286047000.3,N
1645282555.9,286047000.3,N
1645282575.8,286047000.1,N
1645282595.6,286046999.8,N
1645282615.5,286046999.8,N
1645282635.3,286046998.3,N
1645282655.1,286046998.7,N
1645282675.9,286047000.7,N
1645282695.7,286047000.6,N
1645282715.5,286047001.7,N
1645282735.4,286047001.8,N
1645282755.2,286047002.0,N
1645282775.1,286047004.1,Y
1645282776.0,286047004.1,P
1645282795.8,286047001.3,N
